Regional Weather Roundup
Issued by NWS

Home | Current Version | Previous Version | Graphics & Text | Print | Product List | Glossary On
Versions: 1 2 3 4 5 6 7 8 9 10 11 12 13 14 15 16 17 18 19 20 21 22 23 24 25 26 27 28 29 30 31 32 33 34 35 36 37 38 39 40 41 42 43 44 45 46 47 48 49 50
000
ASUS45 KTFX 290110
RWRMT
MONTANA REGIONAL WEATHER ROUNDUP
NATIONAL WEATHER SERVICE GREAT FALLS MT
700 PM MDT TUE JUL 28 2015

NOTE: "FAIR" INDICATES FEW OR NO CLOUDS BELOW 12000 FEET WITH NO
SIGNIFICANT WEATHER AND/OR OBSTRUCTIONS TO VISIBILITY.

MTZ001>007-043-290200-
WEST OF THE DIVIDE

CITY           SKY/WX    TMP DP  RH WIND       PRES   REMARKS
KALISPELL      CLOUDY    72  38  29 W8        30.16R
MISSOULA       SUNNY     73  38  27 W13G21    30.20S
BUTTE          PTSUNNY   63  33  32 NW13      30.28S
MULLAN PASS    PTSUNNY   59  38  45 VRB5      30.33S
DEER LODGE       N/A     66  37  34 NW5       30.28R
EUREKA           N/A     73  45  35 SW10G16   30.14S
HAMILTON         N/A     73  34  23 NW2       30.22S
LIBBY            N/A     70  45  40 N9G16     30.18R
PLAINS           N/A     72  41  32 W2        30.19S
RONAN            N/A     72  41  32 W9        30.22S
$$

MTZ008-052>055-290200-
SOUTHWEST MONTANA

CITY           SKY/WX    TMP DP  RH WIND       PRES   REMARKS
BOZEMAN        MOSUNNY   69  34  27 SW13      30.23S
DILLON         MOSUNNY   63  38  39 SW12      30.27S
W YELLOWSTONE  MOSUNNY   55  34  44 S5        30.36S
TWIN BRIDGES     N/A     68  36  30 SE9       30.22F
$$

MTZ009-010-012-014-046-048-049-054-290200-
EAST SLOPES AND CENTRAL MONTANA

CITY           SKY/WX    TMP DP  RH WIND       PRES   REMARKS
CUT BANK       MOSUNNY   71  35  26 NW18      30.11R
GREAT FALLS    PTSUNNY   74  32  21 W17       30.11R
HELENA         MOSUNNY   74  32  21 W16       30.18R
CONRAD           N/A     73  38  28 SW14      30.13S
$$

MTZ011-013-016-021-045-047-050-051-290200-
NORTH CENTRAL MONTANA

CITY           SKY/WX    TMP DP  RH WIND       PRES   REMARKS
HAVRE          PTSUNNY   75  43  31 NW16G23   30.01S
LEWISTOWN      MOSUNNY   70  38  31 NW10      30.14R
CHINOOK          N/A     73  45  35 W14G21    29.99S
FORT BENTON      N/A     75  34  22 W17       30.07R
$$

MTZ017>020-022>027-061-062-290200-
NORTHEAST MONTANA

CITY           SKY/WX    TMP DP  RH WIND       PRES   REMARKS
GLASGOW        PTSUNNY   68  47  46 NW15      29.94R
JORDAN           N/A     72  44  36 W20G26    30.01R
SIDNEY         CLOUDY    59  52  77 W16G25    29.89R
WOLF POINT     CLOUDY    70  45  40 W28G43    29.91R
PLENTYWOOD       N/A     55  52  88 NW36G51   29.78R
POPLAR           N/A     63  54  72 NW8       29.90R
SCOBEY           N/A     55  48  77 NW16      29.88R
$$

MTZ028>42-056>058-290200-
SOUTHCENTRAL AND SOUTHEAST MONTANA

CITY           SKY/WX    TMP DP  RH WIND       PRES   REMARKS
BAKER          MOSUNNY   71  39  31 W36G51    30.00R
BILLINGS       MOSUNNY   73  35  25 W20G30    30.15R
LIVINGSTON     SUNNY     69  36  29 W23G29    30.21S
MILES CITY     MOSUNNY   72  38  29 NW22G37   30.04R
EKALAKA          N/A     69  33  26 W29       30.03R
FORSYTH          N/A     73  36  25 NW16G26   30.06R
LAUREL           N/A     73  34  24 W14       30.14R
ROUNDUP          N/A     73  34  24 W14       30.02R
$$

REGIONAL REPORTS...DAKOTAS

CITY           SKY/WX    TMP DP  RH WIND       PRES   REMARKS
WILLISTON      LGT RAIN  56  51  84 W37G49    29.80R
MINOT          LGT RAIN  58  52  80 SW35G51   29.49R
DICKINSON      MOSUNNY   68  42  38 W32G46    29.87R
BEACH          FAIR      66  39  37 W29G41    29.96R
CROSBY         CLOUDY    55  55 100 NW37G59   29.63R
BISMARCK       MOSUNNY   68  45  43 W29G51    29.83R
GRAND FORKS    MOCLDY    72  50  45 SW29G44   29.61F
FARGO          PTCLDY    75  50  41 SW29G44   29.74R
BUFFALO SD       N/A     71  37  28 W31G41    29.97S
RAPID CITY     SUNNY     71  45  39 N14       30.09R
$$

REGIONAL REPORTS...WYOMING/IDAHO/WASHINGTON

CITY           SKY/WX    TMP DP  RH WIND       PRES   REMARKS
GILLETTE       SUNNY     70  35  27 NW17      30.17R
SHERIDAN       SUNNY     71  35  26 N22G28    30.16R
BUFFALO WY     SUNNY     68  35  29 N13G25    30.22R
CODY           SUNNY     66  30  26 W15       30.23R
YELLOWSTONE LA   N/A     51  29  42 VRB3      30.43R
IDAHO FALLS    MOSUNNY   70  30  22 E8        30.28F
SALMON         MOSUNNY   70  39  32 NW5       30.23S
BOISE          SUNNY     80  25  13 NW6       30.17F
SPOKANE        MOSUNNY   79  36  21 SW10      30.17F
$$

REGIONAL REPORTS...ALBERTA

CITY           SKY/WX    TMP DP  RH WIND       PRES   REMARKS
EDMONTON       MOSUNNY   73  45  35 NW12G22   29.94R
CALGARY        PTSUNNY   72  41  33 NW10      30.05R
LETHBRIDGE     MOSUNNY   73  41  31 W22G32    30.04S
WATERTON GATE    N/A     66  41  39 SW14G20     N/A
CARDSTON         N/A     70  39  32 W12G22      N/A
MILK RIVER       N/A     73  37  27 NW17G24     N/A
ONEFOUR          N/A     70  41  35 NW20        N/A
$$

REGIONAL REPORTS...SASKATCHEWAN

CITY           SKY/WX    TMP DP  RH WIND       PRES   REMARKS
SWIFT CURRENT  CLOUDY    64  50  59 NW14      29.89R
REGINA         LGT RAIN  55  54  94 NW31G47   29.68R FOG
SASKATOON      CLOUDY    64  55  72 NW13G18   29.77R
CYPRESS HILLS    N/A     63  36  36 NW9G24      N/A
VAL MARIE        N/A     66  50  55 NW12        N/A
ASSINIBOIA       N/A     73  48  40 NW14        N/A
$$



USA.gov is the U.S. government's official web portal to all federal, state and local government web resources and services.